TIANMU-1 19

Last updated on Wed Sep 17 2025 00:02:23 GMT+0000 (Coordinated Universal Time)

1 58660U 23208A 25259.57253884 .00009131 00000+0 36278-3 0 9997 2 58660 97.4334 10.9660 0005434 192.0060 168.1049 15.25528742 95524
UTC large
Height (km)
Speed (km/s)
/
Latitude / Longitude
Inclination (degrees)
Orbital Period (minutes)
Azimuth
Elevation
Range (km)
Doppler Factor

Next 0 passes for location: London (51.5072 / 0.1276)

Sorry there are no passes over London.